Location: ???????
(55.4362°N, 38.1183°E)
Time: 11:34:16
(UTC+00:00)

Nauka - Pass Details

Date: 29 September 2021
Orbit: 417 x 423 km, 51.6° (Epoch: 20 October)

Event Time Altitude Azimuth Distance (km) Brightness Sun altitude
Rises 16:42:17 0° 272° (W) 2,366 ? -14.1°
Reaches altitude 10° 16:44:31 10° 262° (W) 1,502 ? -14.4°
Maximum altitude 16:47:32 30° 198° (SSW) 773 ? -14.8°
Enters shadow 16:48:56 22° 156° (SSE) 978 ? -15.0°
